Year,Month,Day,Hour,Minute,Value (Times are PST for temperature in C)
2015,08,28,00,00,20.80
2015,08,28,00,01,20.70
2015,08,28,00,02,20.70
2015,08,28,00,03,20.60
2015,08,28,00,04,20.50
2015,08,28,00,05,20.30
2015,08,28,00,06,20.20
2015,08,28,00,07,20.10
2015,08,28,00,08,20.10
2015,08,28,00,09,20.20
2015,08,28,00,10,20.30
2015,08,28,00,11,20.60
2015,08,28,00,12,20.80
2015,08,28,00,13,21.00
2015,08,28,00,14,21.30
2015,08,28,00,15,21.60
2015,08,28,00,16,21.70
2015,08,28,00,17,21.80
2015,08,28,00,18,21.80
2015,08,28,00,19,21.80
2015,08,28,00,20,21.80
2015,08,28,00,21,21.80
2015,08,28,00,22,21.80
2015,08,28,00,23,21.70
2015,08,28,00,24,21.70
2015,08,28,00,25,21.60
2015,08,28,00,26,21.60
2015,08,28,00,27,21.50
2015,08,28,00,28,21.40
2015,08,28,00,29,21.40
2015,08,28,00,30,21.40
2015,08,28,00,31,21.40
2015,08,28,00,32,21.40
2015,08,28,00,33,21.30
2015,08,28,00,34,21.30
2015,08,28,00,35,21.30
2015,08,28,00,36,21.20
2015,08,28,00,37,21.10
2015,08,28,00,38,21.00
2015,08,28,00,39,20.90
2015,08,28,00,40,20.80
2015,08,28,00,41,20.70
2015,08,28,00,42,20.60
2015,08,28,00,43,20.40
2015,08,28,00,44,20.30
2015,08,28,00,45,20.10
2015,08,28,00,46,20.00
2015,08,28,00,47,19.80
2015,08,28,00,48,19.60
2015,08,28,00,49,19.40
2015,08,28,00,50,19.20
2015,08,28,00,51,19.10
2015,08,28,00,52,18.90
2015,08,28,00,53,18.70
2015,08,28,00,54,18.50
2015,08,28,00,55,18.30
2015,08,28,00,56,18.20
2015,08,28,00,57,18.00
2015,08,28,00,58,17.90
2015,08,28,00,59,17.70
2015,08,28,01,00,17.50
2015,08,28,01,01,17.30
2015,08,28,01,02,17.30
2015,08,28,01,03,17.20
2015,08,28,01,04,17.20
2015,08,28,01,05,17.20
2015,08,28,01,06,17.20
2015,08,28,01,07,17.10
2015,08,28,01,08,17.10
2015,08,28,01,09,17.10
2015,08,28,01,10,17.10
2015,08,28,01,11,17.10
2015,08,28,01,12,17.10
2015,08,28,01,13,17.10
2015,08,28,01,14,17.10
2015,08,28,01,15,17.10
2015,08,28,01,16,17.10
2015,08,28,01,17,17.10
2015,08,28,01,18,17.00
2015,08,28,01,19,17.00
2015,08,28,01,20,17.00
2015,08,28,01,21,16.90
2015,08,28,01,22,16.80
2015,08,28,01,23,16.80
2015,08,28,01,24,16.70
2015,08,28,01,25,16.70
2015,08,28,01,26,16.60
2015,08,28,01,27,16.60
2015,08,28,01,28,16.60
2015,08,28,01,29,16.60
2015,08,28,01,30,16.60
2015,08,28,01,31,16.60
2015,08,28,01,32,16.50
2015,08,28,01,33,16.50
2015,08,28,01,34,16.40
2015,08,28,01,35,16.40
2015,08,28,01,36,16.40
2015,08,28,01,37,16.40
2015,08,28,01,38,16.40
2015,08,28,01,39,16.40
2015,08,28,01,40,16.40
2015,08,28,01,41,16.40
2015,08,28,01,42,16.40
2015,08,28,01,43,16.50
2015,08,28,01,44,16.50
2015,08,28,01,45,16.50
2015,08,28,01,46,16.50
2015,08,28,01,47,16.50
2015,08,28,01,48,16.50
2015,08,28,01,49,16.50
2015,08,28,01,50,16.50
2015,08,28,01,51,16.60
2015,08,28,01,52,16.60
2015,08,28,01,53,16.60
2015,08,28,01,54,16.60
2015,08,28,01,55,16.60
2015,08,28,01,56,16.70
2015,08,28,01,57,16.70
2015,08,28,01,58,16.70
2015,08,28,01,59,16.70
2015,08,28,02,00,16.70
2015,08,28,02,01,16.70
2015,08,28,02,02,16.70
2015,08,28,02,03,16.70
2015,08,28,02,04,16.70
2015,08,28,02,05,16.70
2015,08,28,02,06,16.70
2015,08,28,02,07,16.70
2015,08,28,02,08,16.70
2015,08,28,02,09,16.70
2015,08,28,02,10,16.80
2015,08,28,02,11,16.80
2015,08,28,02,12,16.80
2015,08,28,02,13,16.80
2015,08,28,02,14,16.80
2015,08,28,02,15,16.80
2015,08,28,02,16,16.80
2015,08,28,02,17,16.80
2015,08,28,02,18,16.80
2015,08,28,02,19,16.80
2015,08,28,02,20,16.80
2015,08,28,02,21,16.80
2015,08,28,02,22,16.90
2015,08,28,02,23,16.90
2015,08,28,02,24,16.90
2015,08,28,02,25,16.90
2015,08,28,02,26,16.90
2015,08,28,02,27,16.90
2015,08,28,02,28,16.90
2015,08,28,02,29,17.00
2015,08,28,02,30,17.00
2015,08,28,02,31,17.00
2015,08,28,02,32,17.10
2015,08,28,02,33,17.10
2015,08,28,02,34,17.10
2015,08,28,02,35,17.10
2015,08,28,02,36,17.10
2015,08,28,02,37,17.10
2015,08,28,02,38,17.20
2015,08,28,02,39,17.20
2015,08,28,02,40,17.20
2015,08,28,02,41,17.20
2015,08,28,02,42,17.20
2015,08,28,02,43,17.20
2015,08,28,02,44,17.20
2015,08,28,02,45,17.20
2015,08,28,02,46,17.10
2015,08,28,02,47,17.10
2015,08,28,02,48,17.10
2015,08,28,02,49,17.10
2015,08,28,02,50,17.00
2015,08,28,02,51,17.00
2015,08,28,02,52,17.00
2015,08,28,02,53,17.00
2015,08,28,02,54,17.00
2015,08,28,02,55,16.90
2015,08,28,02,56,16.90
2015,08,28,02,57,16.90
2015,08,28,02,58,16.90
2015,08,28,02,59,16.90
2015,08,28,03,00,16.80
2015,08,28,03,01,16.80
2015,08,28,03,02,16.80
2015,08,28,03,03,16.80
2015,08,28,03,04,16.70
2015,08,28,03,05,16.70
2015,08,28,03,06,16.60
2015,08,28,03,07,16.60
2015,08,28,03,08,16.60
2015,08,28,03,09,16.50
2015,08,28,03,10,16.50
2015,08,28,03,11,16.50
2015,08,28,03,12,16.40
2015,08,28,03,13,16.40
2015,08,28,03,14,16.40
2015,08,28,03,15,16.40
2015,08,28,03,16,16.30
2015,08,28,03,17,16.30
2015,08,28,03,18,16.30
2015,08,28,03,19,16.30
2015,08,28,03,20,16.30
2015,08,28,03,21,16.30
2015,08,28,03,22,16.30
2015,08,28,03,23,16.30
2015,08,28,03,24,16.30
2015,08,28,03,25,16.30
2015,08,28,03,26,16.20
2015,08,28,03,27,16.20
2015,08,28,03,28,16.20
2015,08,28,03,29,16.20
2015,08,28,03,30,16.20
2015,08,28,03,31,16.20
2015,08,28,03,32,16.20
2015,08,28,03,33,16.20
2015,08,28,03,34,16.20
2015,08,28,03,35,16.20
2015,08,28,03,36,16.20
2015,08,28,03,37,16.20
2015,08,28,03,38,16.20
2015,08,28,03,39,16.20
2015,08,28,03,40,16.20
2015,08,28,03,41,16.20
2015,08,28,03,42,16.20
2015,08,28,03,43,16.20
2015,08,28,03,44,16.20
2015,08,28,03,45,16.20
2015,08,28,03,46,16.20
2015,08,28,03,47,16.20
2015,08,28,03,48,16.20
2015,08,28,03,49,16.20
2015,08,28,03,50,16.20
2015,08,28,03,51,16.30
2015,08,28,03,52,16.30
2015,08,28,03,53,16.30
2015,08,28,03,54,16.30
2015,08,28,03,55,16.30
2015,08,28,03,56,16.30
2015,08,28,03,57,16.30
2015,08,28,03,58,16.30
2015,08,28,03,59,16.30
2015,08,28,04,00,16.30
2015,08,28,04,01,16.30
2015,08,28,04,02,16.40
2015,08,28,04,03,16.40
2015,08,28,04,04,16.40
2015,08,28,04,05,16.40
2015,08,28,04,06,16.40
2015,08,28,04,07,16.40
2015,08,28,04,08,16.40
2015,08,28,04,09,16.40
2015,08,28,04,10,16.40
2015,08,28,04,11,16.40
2015,08,28,04,12,16.40
2015,08,28,04,13,16.40
2015,08,28,04,14,16.40
2015,08,28,04,15,16.40
2015,08,28,04,16,16.40
2015,08,28,04,17,16.40
2015,08,28,04,18,16.40
2015,08,28,04,19,16.40
2015,08,28,04,20,16.40
2015,08,28,04,21,16.40
2015,08,28,04,22,16.50
2015,08,28,04,23,16.50
2015,08,28,04,24,16.50
2015,08,28,04,25,16.50
2015,08,28,04,26,16.60
2015,08,28,04,27,16.60
2015,08,28,04,28,16.60
2015,08,28,04,29,16.60
2015,08,28,04,30,16.70
2015,08,28,04,31,16.70
2015,08,28,04,32,16.70
2015,08,28,04,33,16.70
2015,08,28,04,34,16.70
2015,08,28,04,35,16.80
2015,08,28,04,36,16.80
2015,08,28,04,37,16.80
2015,08,28,04,38,16.80
2015,08,28,04,39,16.80
2015,08,28,04,40,16.80
2015,08,28,04,41,16.80
2015,08,28,04,42,16.90
2015,08,28,04,43,16.90
2015,08,28,04,44,16.90
2015,08,28,04,45,16.90
2015,08,28,04,46,16.90
2015,08,28,04,47,16.90
2015,08,28,04,48,16.90
2015,08,28,04,49,16.90
2015,08,28,04,50,16.90
2015,08,28,04,51,16.90
2015,08,28,04,52,16.90
2015,08,28,04,53,16.90
2015,08,28,04,54,16.90
2015,08,28,04,55,16.90
2015,08,28,04,56,16.90
2015,08,28,04,57,16.90
2015,08,28,04,58,16.90
2015,08,28,04,59,16.90
2015,08,28,05,00,16.90
2015,08,28,05,01,16.90
2015,08,28,05,02,16.90
2015,08,28,05,03,16.90
2015,08,28,05,04,16.90
2015,08,28,05,05,16.90
2015,08,28,05,06,16.90
2015,08,28,05,07,16.80
2015,08,28,05,08,16.90
2015,08,28,05,09,16.90
2015,08,28,05,10,16.90
2015,08,28,05,11,16.90
2015,08,28,05,12,16.90
2015,08,28,05,13,16.90
2015,08,28,05,14,16.90
2015,08,28,05,15,16.90
2015,08,28,05,16,16.90
2015,08,28,05,17,16.80
2015,08,28,05,18,16.90
2015,08,28,05,19,16.90
2015,08,28,05,20,16.80
2015,08,28,05,21,16.80
2015,08,28,05,22,16.80
2015,08,28,05,23,16.80
2015,08,28,05,24,16.80
2015,08,28,05,25,16.80
2015,08,28,05,26,16.80
2015,08,28,05,27,16.80
2015,08,28,05,28,16.80
2015,08,28,05,29,16.80
2015,08,28,05,30,16.80
2015,08,28,05,31,16.80
2015,08,28,05,32,16.80
2015,08,28,05,33,16.80
2015,08,28,05,34,16.80
2015,08,28,05,35,16.80
2015,08,28,05,36,16.80
2015,08,28,05,37,16.80
2015,08,28,05,38,16.80
2015,08,28,05,39,16.80
2015,08,28,05,40,16.80
2015,08,28,05,41,16.80
2015,08,28,05,42,16.80
2015,08,28,05,43,16.80
2015,08,28,05,44,16.80
2015,08,28,05,45,16.80
2015,08,28,05,46,16.80
2015,08,28,05,47,16.70
2015,08,28,05,48,16.70
2015,08,28,05,49,16.70
2015,08,28,05,50,16.70
2015,08,28,05,51,16.70
2015,08,28,05,52,16.70
2015,08,28,05,53,16.70
2015,08,28,05,54,16.70
2015,08,28,05,55,16.70
2015,08,28,05,56,16.70
2015,08,28,05,57,16.70
2015,08,28,05,58,16.70
2015,08,28,05,59,16.70
2015,08,28,06,00,16.60
2015,08,28,06,01,16.60
2015,08,28,06,02,16.60
2015,08,28,06,03,16.60
2015,08,28,06,04,16.60
2015,08,28,06,05,16.60
2015,08,28,06,06,16.60
2015,08,28,06,07,16.60
2015,08,28,06,08,16.60
2015,08,28,06,09,16.60
2015,08,28,06,10,16.60
2015,08,28,06,11,16.60
2015,08,28,06,12,16.60
2015,08,28,06,13,16.60
2015,08,28,06,14,16.50
2015,08,28,06,15,16.50
2015,08,28,06,16,16.50
2015,08,28,06,17,16.50
2015,08,28,06,18,16.50
2015,08,28,06,19,16.50
2015,08,28,06,20,16.40
2015,08,28,06,21,16.40
2015,08,28,06,22,16.40
2015,08,28,06,23,16.40
2015,08,28,06,24,16.40
2015,08,28,06,25,16.40
2015,08,28,06,26,16.40
2015,08,28,06,27,16.40
2015,08,28,06,28,16.40
2015,08,28,06,29,16.40
2015,08,28,06,30,16.40
2015,08,28,06,31,16.30
2015,08,28,06,32,16.30
2015,08,28,06,33,16.30
2015,08,28,06,34,16.30
2015,08,28,06,35,16.30
2015,08,28,06,36,16.30
2015,08,28,06,37,16.30
2015,08,28,06,38,16.30
2015,08,28,06,39,16.30
2015,08,28,06,40,16.30
2015,08,28,06,41,16.30
2015,08,28,06,42,16.30
2015,08,28,06,43,16.30
2015,08,28,06,44,16.30
2015,08,28,06,45,16.30
2015,08,28,06,46,16.20
2015,08,28,06,47,16.20
2015,08,28,06,48,16.20
2015,08,28,06,49,16.20
2015,08,28,06,50,16.20
2015,08,28,06,51,16.20
2015,08,28,06,52,16.20
2015,08,28,06,53,16.20
2015,08,28,06,54,16.20
2015,08,28,06,55,16.20
2015,08,28,06,56,16.10
2015,08,28,06,57,16.10
2015,08,28,06,58,16.10
2015,08,28,06,59,16.10
2015,08,28,07,00,16.10
2015,08,28,07,01,16.10
2015,08,28,07,02,16.10
2015,08,28,07,03,16.10
2015,08,28,07,04,16.10
2015,08,28,07,05,16.10
2015,08,28,07,06,16.10
2015,08,28,07,07,16.10
2015,08,28,07,08,16.10
2015,08,28,07,09,16.10
2015,08,28,07,10,16.10
2015,08,28,07,11,16.10
2015,08,28,07,12,16.10
2015,08,28,07,13,16.10
2015,08,28,07,14,16.10
2015,08,28,07,15,16.10
2015,08,28,07,16,16.10
2015,08,28,07,17,16.10
2015,08,28,07,18,16.10
2015,08,28,07,19,16.10
2015,08,28,07,20,16.10
2015,08,28,07,21,16.10
2015,08,28,07,22,16.00
2015,08,28,07,23,16.00
2015,08,28,07,24,16.00
2015,08,28,07,25,16.00
2015,08,28,07,26,16.00
2015,08,28,07,27,16.00
2015,08,28,07,28,16.00
2015,08,28,07,29,16.00
2015,08,28,07,30,16.10
2015,08,28,07,31,16.10
2015,08,28,07,32,16.10
2015,08,28,07,33,16.10
2015,08,28,07,34,16.10
2015,08,28,07,35,16.10
2015,08,28,07,36,16.10
2015,08,28,07,37,16.10
2015,08,28,07,38,16.10
2015,08,28,07,39,16.10
2015,08,28,07,40,16.10
2015,08,28,07,41,16.10
2015,08,28,07,42,16.10
2015,08,28,07,43,16.10
2015,08,28,07,44,16.10
2015,08,28,07,45,16.10
2015,08,28,07,46,16.10
2015,08,28,07,47,16.20
2015,08,28,07,48,16.20
2015,08,28,07,49,16.20
2015,08,28,07,50,16.20
2015,08,28,07,51,16.20
2015,08,28,07,52,16.30
2015,08,28,07,53,16.30
2015,08,28,07,54,16.30
2015,08,28,07,55,16.30
2015,08,28,07,56,16.40
2015,08,28,07,57,16.40
2015,08,28,07,58,16.50
2015,08,28,07,59,16.50
2015,08,28,08,00,16.60
2015,08,28,08,01,16.60
2015,08,28,08,02,16.60
2015,08,28,08,03,16.70
2015,08,28,08,04,16.70
2015,08,28,08,05,16.80
2015,08,28,08,06,16.80
2015,08,28,08,07,16.90
2015,08,28,08,08,16.90
2015,08,28,08,09,17.00
2015,08,28,08,10,17.10
2015,08,28,08,11,17.10
2015,08,28,08,12,17.20
2015,08,28,08,13,17.20
2015,08,28,08,14,17.30
2015,08,28,08,15,17.30
2015,08,28,08,16,17.30
2015,08,28,08,17,17.40
2015,08,28,08,18,17.40
2015,08,28,08,19,17.40
2015,08,28,08,20,17.50
2015,08,28,08,21,17.50
2015,08,28,08,22,17.60
2015,08,28,08,23,17.60
2015,08,28,08,24,17.60
2015,08,28,08,25,17.60
2015,08,28,08,26,17.70
2015,08,28,08,27,17.70
2015,08,28,08,28,17.70
2015,08,28,08,29,17.70
2015,08,28,08,30,17.80
2015,08,28,08,31,17.80
2015,08,28,08,32,17.80
2015,08,28,08,33,17.80
2015,08,28,08,34,17.80
2015,08,28,08,35,17.80
2015,08,28,08,36,17.80
2015,08,28,08,37,17.90
2015,08,28,08,38,17.90
2015,08,28,08,39,18.00
2015,08,28,08,40,18.10
2015,08,28,08,41,18.20
2015,08,28,08,42,18.20
2015,08,28,08,43,18.40
2015,08,28,08,44,18.50
2015,08,28,08,45,18.50
2015,08,28,08,46,18.60
2015,08,28,08,47,18.60
2015,08,28,08,48,18.70
2015,08,28,08,49,18.70
2015,08,28,08,50,18.70
2015,08,28,08,51,18.70
2015,08,28,08,52,18.70
2015,08,28,08,53,18.70
2015,08,28,08,54,18.70
2015,08,28,08,55,18.60
2015,08,28,08,56,18.60
2015,08,28,08,57,18.60
2015,08,28,08,58,18.60
2015,08,28,08,59,18.50
2015,08,28,09,00,18.60
2015,08,28,09,01,18.60
2015,08,28,09,02,18.60
2015,08,28,09,03,18.60
2015,08,28,09,04,18.60
2015,08,28,09,05,18.60
2015,08,28,09,06,18.60
2015,08,28,09,07,18.60
2015,08,28,09,08,18.60
2015,08,28,09,09,18.60
2015,08,28,09,10,18.60
2015,08,28,09,11,18.60
2015,08,28,09,12,18.60
2015,08,28,09,13,18.60
2015,08,28,09,14,18.70
2015,08,28,09,15,18.70
2015,08,28,09,16,18.80
2015,08,28,09,17,18.80
2015,08,28,09,18,18.90
2015,08,28,09,19,18.90
2015,08,28,09,20,18.90
2015,08,28,09,21,19.00
2015,08,28,09,22,19.10
2015,08,28,09,23,19.10
2015,08,28,09,24,19.20
2015,08,28,09,25,19.30
2015,08,28,09,26,19.30
2015,08,28,09,27,19.40
2015,08,28,09,28,19.40
2015,08,28,09,29,19.40
2015,08,28,09,30,19.30
2015,08,28,09,31,19.30
2015,08,28,09,32,19.30
2015,08,28,09,33,19.30
2015,08,28,09,34,19.30
2015,08,28,09,35,19.20
2015,08,28,09,36,19.20
2015,08,28,09,37,19.20
2015,08,28,09,38,19.20
2015,08,28,09,39,19.20
2015,08,28,09,40,19.20
2015,08,28,09,41,19.20
2015,08,28,09,42,19.20
2015,08,28,09,43,19.20
2015,08,28,09,44,19.30
2015,08,28,09,45,19.30
2015,08,28,09,46,19.20
2015,08,28,09,47,19.20
2015,08,28,09,48,19.20
2015,08,28,09,49,19.20
2015,08,28,09,50,19.20
2015,08,28,09,51,19.20
2015,08,28,09,52,19.20
2015,08,28,09,53,19.20
2015,08,28,09,54,19.30
2015,08,28,09,55,19.30
2015,08,28,09,56,19.30
2015,08,28,09,57,19.30
2015,08,28,09,58,19.30
2015,08,28,09,59,19.30
2015,08,28,10,00,19.30
2015,08,28,10,01,19.30
2015,08,28,10,02,19.30
2015,08,28,10,03,19.20
2015,08,28,10,04,19.20
2015,08,28,10,05,19.20
2015,08,28,10,06,19.20
2015,08,28,10,07,19.20
2015,08,28,10,08,19.20
2015,08,28,10,09,19.20
2015,08,28,10,10,19.10
2015,08,28,10,11,19.10
2015,08,28,10,12,19.10
2015,08,28,10,13,19.10
2015,08,28,10,14,19.10
2015,08,28,10,15,19.00
2015,08,28,10,16,19.00
2015,08,28,10,17,18.90
2015,08,28,10,18,18.90
2015,08,28,10,19,18.90
2015,08,28,10,20,18.90
2015,08,28,10,21,18.80
2015,08,28,10,22,18.80
2015,08,28,10,23,18.80
2015,08,28,10,24,18.80
2015,08,28,10,25,18.80
2015,08,28,10,26,18.80
2015,08,28,10,27,18.80
2015,08,28,10,28,18.80
2015,08,28,10,29,18.80
2015,08,28,10,30,18.80
2015,08,28,10,31,18.80
2015,08,28,10,32,18.80
2015,08,28,10,33,18.80
2015,08,28,10,34,18.80
2015,08,28,10,35,18.80
2015,08,28,10,36,18.80
2015,08,28,10,37,18.80
2015,08,28,10,38,18.80
2015,08,28,10,39,18.80
2015,08,28,10,40,18.80
2015,08,28,10,41,18.80
2015,08,28,10,42,18.70
2015,08,28,10,43,18.70
2015,08,28,10,44,18.70
2015,08,28,10,45,18.70
2015,08,28,10,46,18.60
2015,08,28,10,47,18.60
2015,08,28,10,48,18.60
2015,08,28,10,49,18.60
2015,08,28,10,50,18.60
2015,08,28,10,51,18.60
2015,08,28,10,52,18.60
2015,08,28,10,53,18.60
2015,08,28,10,54,18.60
2015,08,28,10,55,18.60
2015,08,28,10,56,18.60
2015,08,28,10,57,18.70
2015,08,28,10,58,18.70
2015,08,28,10,59,18.70
2015,08,28,11,00,18.70
2015,08,28,11,01,18.80
2015,08,28,11,02,18.80
2015,08,28,11,03,18.80
2015,08,28,11,04,18.90
2015,08,28,11,05,18.90
2015,08,28,11,06,18.90
2015,08,28,11,07,18.90
2015,08,28,11,08,19.00
2015,08,28,11,09,19.00
2015,08,28,11,10,19.00
2015,08,28,11,11,19.00
2015,08,28,11,12,19.10
2015,08,28,11,13,19.10
2015,08,28,11,14,19.10
2015,08,28,11,15,19.10
2015,08,28,11,16,19.10
2015,08,28,11,17,19.10
2015,08,28,11,18,19.10
2015,08,28,11,19,19.10
2015,08,28,11,20,19.10
2015,08,28,11,21,19.10
2015,08,28,11,22,19.10
2015,08,28,11,23,19.20
2015,08,28,11,24,19.20
2015,08,28,11,25,19.30
2015,08,28,11,26,19.30
2015,08,28,11,27,19.40
2015,08,28,11,28,19.40
2015,08,28,11,29,19.50
2015,08,28,11,30,19.60
2015,08,28,11,31,19.70
2015,08,28,11,32,19.70
2015,08,28,11,33,19.70
2015,08,28,11,34,19.70
2015,08,28,11,35,19.70
2015,08,28,11,36,19.60
2015,08,28,11,37,19.60
2015,08,28,11,38,19.60
2015,08,28,11,39,19.60
2015,08,28,11,40,19.50
2015,08,28,11,41,19.50
2015,08,28,11,42,19.50
2015,08,28,11,43,19.50
2015,08,28,11,44,19.40
2015,08,28,11,45,19.40
2015,08,28,11,46,19.40
2015,08,28,11,47,19.40
2015,08,28,11,48,19.40
2015,08,28,11,49,19.50
2015,08,28,11,50,19.50
2015,08,28,11,51,19.50
2015,08,28,11,52,19.60
2015,08,28,11,53,19.60
2015,08,28,11,54,19.60
2015,08,28,11,55,19.60
2015,08,28,11,56,19.60
2015,08,28,11,57,19.50
2015,08,28,11,58,19.50
2015,08,28,11,59,19.50
2015,08,28,12,00,19.50
2015,08,28,12,01,19.50
2015,08,28,12,02,19.50
2015,08,28,12,03,19.40
2015,08,28,12,04,19.40
2015,08,28,12,05,19.40
2015,08,28,12,06,19.30
2015,08,28,12,07,19.30
2015,08,28,12,08,19.20
2015,08,28,12,09,19.10
2015,08,28,12,10,19.00
2015,08,28,12,11,18.90
2015,08,28,12,12,18.80
2015,08,28,12,13,18.70
2015,08,28,12,14,18.60
2015,08,28,12,15,18.60
2015,08,28,12,16,18.50
2015,08,28,12,17,18.50
2015,08,28,12,18,18.50
2015,08,28,12,19,18.40
2015,08,28,12,20,18.40
2015,08,28,12,21,18.40
2015,08,28,12,22,18.40
2015,08,28,12,23,18.30
2015,08,28,12,24,18.30
2015,08,28,12,25,18.30
2015,08,28,12,26,18.30
2015,08,28,12,27,18.30
2015,08,28,12,28,18.40
2015,08,28,12,29,18.40
2015,08,28,12,30,18.50
2015,08,28,12,31,18.50
2015,08,28,12,32,18.60
2015,08,28,12,33,18.60
2015,08,28,12,34,18.60
2015,08,28,12,35,18.60
2015,08,28,12,36,18.60
2015,08,28,12,37,18.50
2015,08,28,12,38,18.50
2015,08,28,12,39,18.40
2015,08,28,12,40,18.30
2015,08,28,12,41,18.30
2015,08,28,12,42,18.30
2015,08,28,12,43,18.30
2015,08,28,12,44,18.30
2015,08,28,12,45,18.30
2015,08,28,12,46,18.30
2015,08,28,12,47,18.20
2015,08,28,12,48,18.20
2015,08,28,12,49,18.20
2015,08,28,12,50,18.20
2015,08,28,12,51,18.10
2015,08,28,12,52,18.10
2015,08,28,12,53,18.10
2015,08,28,12,54,18.10
2015,08,28,12,55,18.20
2015,08,28,12,56,18.20
2015,08,28,12,57,18.20
2015,08,28,12,58,18.20
2015,08,28,12,59,18.20
2015,08,28,13,00,18.10
2015,08,28,13,01,18.10
2015,08,28,13,02,18.10
2015,08,28,13,03,18.10
2015,08,28,13,04,18.00
2015,08,28,13,05,18.00
2015,08,28,13,06,18.10
2015,08,28,13,07,18.10
2015,08,28,13,08,18.00
2015,08,28,13,09,18.00
2015,08,28,13,10,18.00
2015,08,28,13,11,18.00
2015,08,28,13,12,18.00
2015,08,28,13,13,18.00
2015,08,28,13,14,18.00
2015,08,28,13,15,17.90
2015,08,28,13,16,17.90
2015,08,28,13,17,17.90
2015,08,28,13,18,17.90
2015,08,28,13,19,17.90
2015,08,28,13,20,17.90
2015,08,28,13,21,17.90
2015,08,28,13,22,17.90
2015,08,28,13,23,18.00
2015,08,28,13,24,18.00
2015,08,28,13,25,18.10
2015,08,28,13,26,18.20
2015,08,28,13,27,18.20
2015,08,28,13,28,18.30
2015,08,28,13,29,18.40
2015,08,28,13,30,18.50
2015,08,28,13,31,18.50
2015,08,28,13,32,18.60
2015,08,28,13,33,18.70
2015,08,28,13,34,18.80
2015,08,28,13,35,18.80
2015,08,28,13,36,18.90
2015,08,28,13,37,18.90
2015,08,28,13,38,19.00
2015,08,28,13,39,19.00
2015,08,28,13,40,19.00
2015,08,28,13,41,19.00
2015,08,28,13,42,19.00
2015,08,28,13,43,19.00
2015,08,28,13,44,19.00
2015,08,28,13,45,19.10
2015,08,28,13,46,19.10
2015,08,28,13,47,19.20
2015,08,28,13,48,19.20
2015,08,28,13,49,19.20
2015,08,28,13,50,19.20
2015,08,28,13,51,19.20
2015,08,28,13,52,19.20
2015,08,28,13,53,19.20
2015,08,28,13,54,19.20
2015,08,28,13,55,19.20
2015,08,28,13,56,19.20
2015,08,28,13,57,19.20
2015,08,28,13,58,19.10
2015,08,28,13,59,19.20
2015,08,28,14,00,19.20
2015,08,28,14,01,19.30
2015,08,28,14,02,19.30
2015,08,28,14,03,19.30
2015,08,28,14,04,19.40
2015,08,28,14,05,19.40
2015,08,28,14,06,19.40
2015,08,28,14,07,19.40
2015,08,28,14,08,19.40
2015,08,28,14,09,19.40
2015,08,28,14,10,19.40
2015,08,28,14,11,19.40
2015,08,28,14,12,19.40
2015,08,28,14,13,19.40
2015,08,28,14,14,19.30
2015,08,28,14,15,19.30
2015,08,28,14,16,19.30
2015,08,28,14,17,19.20
2015,08,28,14,18,19.20
2015,08,28,14,19,19.20
2015,08,28,14,20,19.30
2015,08,28,14,21,19.30
2015,08,28,14,22,19.30
2015,08,28,14,23,19.30
2015,08,28,14,24,19.30
2015,08,28,14,25,19.30
2015,08,28,14,26,19.30
2015,08,28,14,27,19.30
2015,08,28,14,28,19.30
2015,08,28,14,29,19.30
2015,08,28,14,30,19.30
2015,08,28,14,31,19.30
2015,08,28,14,32,19.30
2015,08,28,14,33,19.30
2015,08,28,14,34,19.40
2015,08,28,14,35,19.40
2015,08,28,14,36,19.40
2015,08,28,14,37,19.40
2015,08,28,14,38,19.40
2015,08,28,14,39,19.40
2015,08,28,14,40,19.30
2015,08,28,14,41,19.30
2015,08,28,14,42,19.30
2015,08,28,14,43,19.30
2015,08,28,14,44,19.30
2015,08,28,14,45,19.30
2015,08,28,14,46,19.30
2015,08,28,14,47,19.40
2015,08,28,14,48,19.50
2015,08,28,14,49,19.50
2015,08,28,14,50,19.50
2015,08,28,14,51,19.60
2015,08,28,14,52,19.60
2015,08,28,14,53,19.50
2015,08,28,14,54,19.50
2015,08,28,14,55,19.50
2015,08,28,14,56,19.50
2015,08,28,14,57,19.50
2015,08,28,14,58,19.60
2015,08,28,14,59,19.50
2015,08,28,15,00,19.50
2015,08,28,15,01,19.50
2015,08,28,15,02,19.40
2015,08,28,15,03,19.40
2015,08,28,15,04,19.40
2015,08,28,15,05,19.40
2015,08,28,15,06,19.40
2015,08,28,15,07,19.40
2015,08,28,15,08,19.40
2015,08,28,15,09,19.40
2015,08,28,15,10,19.50
2015,08,28,15,11,19.50
2015,08,28,15,12,19.60
2015,08,28,15,13,19.60
2015,08,28,15,14,19.70
2015,08,28,15,15,19.80
2015,08,28,15,16,19.80
2015,08,28,15,17,19.80
2015,08,28,15,18,19.90
2015,08,28,15,19,19.90
2015,08,28,15,20,20.00
2015,08,28,15,21,20.00
2015,08,28,15,22,20.10
2015,08,28,15,23,20.10
2015,08,28,15,24,20.10
2015,08,28,15,25,20.10
2015,08,28,15,26,20.10
2015,08,28,15,27,20.10
2015,08,28,15,28,20.10
2015,08,28,15,29,20.10
2015,08,28,15,30,20.20
2015,08,28,15,31,20.20
2015,08,28,15,32,20.20
2015,08,28,15,33,20.10
2015,08,28,15,34,20.10
2015,08,28,15,35,20.10
2015,08,28,15,36,20.10
2015,08,28,15,37,20.00
2015,08,28,15,38,19.90
2015,08,28,15,39,19.90
2015,08,28,15,40,19.80
2015,08,28,15,41,19.80
2015,08,28,15,42,19.70
2015,08,28,15,43,19.70
2015,08,28,15,44,19.70
2015,08,28,15,45,19.70
2015,08,28,15,46,19.70
2015,08,28,15,47,19.70
2015,08,28,15,48,19.70
2015,08,28,15,49,19.70
2015,08,28,15,50,19.70
2015,08,28,15,51,19.70
2015,08,28,15,52,19.70
2015,08,28,15,53,19.70
2015,08,28,15,54,19.70
2015,08,28,15,55,19.70
2015,08,28,15,56,19.70
2015,08,28,15,57,19.80
2015,08,28,15,58,19.80
2015,08,28,15,59,19.80
2015,08,28,16,00,19.90
2015,08,28,16,01,19.90
2015,08,28,16,02,19.90
2015,08,28,16,03,19.90
2015,08,28,16,04,20.00
2015,08,28,16,05,20.00
2015,08,28,16,06,20.00
2015,08,28,16,07,20.10
2015,08,28,16,08,20.10
2015,08,28,16,09,20.20
2015,08,28,16,10,20.20
2015,08,28,16,11,20.30
2015,08,28,16,12,20.30
2015,08,28,16,13,20.30
2015,08,28,16,14,20.30
2015,08,28,16,15,20.30
2015,08,28,16,16,20.20
2015,08,28,16,17,20.20
2015,08,28,16,18,20.10
2015,08,28,16,19,20.10
2015,08,28,16,20,20.10
2015,08,28,16,21,20.10
2015,08,28,16,22,20.10
2015,08,28,16,23,20.00
2015,08,28,16,24,20.00
2015,08,28,16,25,20.00
2015,08,28,16,26,19.90
2015,08,28,16,27,19.90
2015,08,28,16,28,19.90
2015,08,28,16,29,19.90
2015,08,28,16,30,19.90
2015,08,28,16,31,19.90
2015,08,28,16,32,19.90
2015,08,28,16,33,19.90
2015,08,28,16,34,19.90
2015,08,28,16,35,19.90
2015,08,28,16,36,20.00
2015,08,28,16,37,20.00
2015,08,28,16,38,20.00
2015,08,28,16,39,20.00
2015,08,28,16,40,20.00
2015,08,28,16,41,20.10
2015,08,28,16,42,20.10
2015,08,28,16,43,20.10
2015,08,28,16,44,20.10
2015,08,28,16,45,20.10
2015,08,28,16,46,20.10
2015,08,28,16,47,20.10
2015,08,28,16,48,20.10
2015,08,28,16,49,20.20
2015,08,28,16,50,20.20
2015,08,28,16,51,20.20
2015,08,28,16,52,20.20
2015,08,28,16,53,20.20
2015,08,28,16,54,20.20
2015,08,28,16,55,20.20
2015,08,28,16,56,20.20
2015,08,28,16,57,20.20
2015,08,28,16,58,20.20
2015,08,28,16,59,20.10
2015,08,28,17,00,20.10
2015,08,28,17,01,20.10
2015,08,28,17,02,20.10
2015,08,28,17,03,20.20
2015,08,28,17,04,20.20
2015,08,28,17,05,20.20
2015,08,28,17,06,20.20
2015,08,28,17,07,20.20
2015,08,28,17,08,20.20
2015,08,28,17,09,20.30
2015,08,28,17,10,20.30
2015,08,28,17,11,20.30
2015,08,28,17,12,20.30
2015,08,28,17,13,20.30
2015,08,28,17,14,20.30
2015,08,28,17,15,20.30
2015,08,28,17,16,20.30
2015,08,28,17,17,20.30
2015,08,28,17,18,20.30
2015,08,28,17,19,20.40